sat.trackr.live / text

‹ back to catalog

STARLINK-5629

NORAD 55419 · 2023-014AE

PAYLOAD ACTIVE UNKNOWN

§ Identity

Operator
Country
US
Launch date
2023-01-31
Launch site
AFWTR
Launch vehicle
Mass (kg)
RCS (m²)

Purposes: comms

External: N2YO · Heavens-Above · Gunter

§ Orbital elements

Epoch: 2026-09-20T22:00:03.000096Z

Period
95.70 min
Inclination
70.0007°
Eccentricity
0.0000834
Mean motion
15.04669802 rev/d
Perigee alt
551.9 km
Apogee alt
553.1 km
Semi-major
6,930.7 km
B*
5.8751e-3
RAAN
312.0961°
Arg perigee
216.6910°
Mean anomaly
315.9736°
Rev number
571

§ Raw data

STARLINK-56291 55419U 23014AE  26263.91670139  .00083690  00000+0  58751-2 0  99922 55419  70.0007 312.0961 0000834 216.6910 315.9736 15.04669802  5710

JSON: /api/v1/satellites/55419 · /tle

For live sub-satellite position, see the globe view (requires WebGL).

§ Visibility from observer

Set your observer location to see the next 7 days of passes ≥ 10°. The values pass through the URL so the page stays shareable.

No JS? Fill the form by hand. The geolocation button needs JavaScript.